Wind_Speed
26 24 22 21 19 18 16 15 14 13 12 11 10 9 9 10 9 10 11 11 10 10 10 10 9 8 8 7 6 5 4 3 3 3 4 5 6 7 9 11 12 14 16 17
25 24 22 20 19 18 18 17 16 15 14 13 13 13 11 10 10 10 10 10 10 10 10 9 8 8 7 6 6 6 5 5 5 5 6 7 8 9 11 13 15 16 18 19
24 23 21 20 18 17 17 17 18 17 16 15 14 13 13 12 12 12 11 11 11 10 9 9 9 9 8 7 7 7 7 7 6 7 8 10 12 13 15 16 17 19 20 21
21 21 21 19 17 16 16 16 16 17 17 17 16 15 14 14 14 14 14 13 12 11 10 10 9 9 8 8 8 8 8 8 9 10 11 13 14 16 18 19 20 21 22 23
19 19 19 18 16 17 17 17 17 17 16 16 16 17 16 16 16 15 15 14 13 12 12 11 10 10 9 9 9 9 9 10 11 12 13 14 16 17 19 20 21 22 23 23
20 18 18 17 16 16 16 16 16 16 16 16 16 17 16 16 15 15 14 13 13 12 12 11 11 11 10 10 10 10 10 10 11 12 13 15 16 17 18 19 20 21 22 22
21 18 16 15 15 15 16 16 16 15 15 15 16 15 15 15 14 14 14 13 13 13 13 13 12 12 11 11 11 10 11 11 12 12 13 14 15 16 17 17 18 19 19 20
24 19 15 14 14 14 14 14 14 14 14 14 14 14 14 14 14 14 14 14 15 15 15 15 14 14 13 13 13 13 13 13 14 14 15 15 16 16 16 16 16 16 17 17
25 20 17 14 13 12 12 12 12 12 13 13 13 13 13 13 14 14 15 15 16 16 17 17 17 16 16 15 15 15 15 16 16 17 17 17 18 18 17 16 16 15 15 15
24 20 17 15 13 12 11 11 11 11 11 12 12 12 12 12 13 14 15 16 16 17 17 18 18 17 17 17 17 17 17 18 18 19 19 19 19 19 19 17 16 16 14 14
23 21 18 16 14 13 12 11 10 10 11 10 10 10 11 11 12 13 14 15 16 16 17 17 17 17 17 18 18 18 18 19 19 20 20 21 21 21 21 19 18 17 15 13
21 20 18 16 14 13 12 11 10 10 10 9 9 9 9 9 10 12 13 14 15 15 16 16 16 17 17 17 17 18 18 19 19 21 21 22 22 22 21 21 20 19 18 17
18 18 18 16 15 13 12 11 11 10 10 8 7 7 7 8 9 10 11 13 14 14 15 15 16 16 16 16 16 17 17 17 18 20 21 22 23 23 23 22 22 22 21 21
14 16 16 16 15 14 12 11 10 10 9 7 6 6 6 6 7 8 10 11 12 13 13 14 14 14 15 15 16 16 16 17 18 19 20 21 22 22 23 24 24 23 23 23
10 12 14 15 14 13 13 11 10 9 9 7 4 4 4 4 5 6 7 9 10 11 11 12 13 13 14 14 15 15 15 16 17 18 19 19 20 21 22 23 24 24 24 25
8 9 11 13 13 13 12 12 11 10 9 7 4 2 2 2 3 4 5 6 7 8 10 10 11 12 12 13 14 14 14 15 15 16 17 18 19 19 21 21 22 23 25 25
9 8 8 10 11 12 12 12 12 11 10 8 5 2 1 1 0 1 2 3 5 6 8 9 10 10 11 12 13 13 14 14 14 15 15 16 17 18 19 20 21 21 22 23
11 10 9 8 9 9 10 11 11 12 11 9 6 4 1 0 1 1 1 2 3 4 6 8 9 9 10 10 11 12 13 14 14 14 14 15 15 16 17 17 18 19 19 20
13 13 11 10 9 8 8 8 9 10 11 10 7 5 3 1 2 2 3 3 3 4 5 6 7 8 8 9 9 10 11 12 13 14 14 14 14 14 14 14 15 15 16 16
16 15 14 13 12 10 9 8 7 8 8 9 8 6 4 2 2 4 4 4 4 5 5 6 6 7 7 7 6 7 8 10 11 13 13 13 13 13 13 13 13 13 13 13
19 18 17 16 15 14 12 10 9 8 7 7 7 7 5 4 3 4 6 6 6 7 7 7 7 7 6 6 5 5 5 7 9 11 12 13 13 12 12 12 12 12 12 11
23 21 20 19 18 18 16 15 13 11 9 7 6 5 5 5 4 4 5 7 8 9 9 9 9 8 7 7 6 5 4 5 6 8 10 12 12 12 12 11 11 11 11 10
26 25 23 22 21 21 20 19 17 16 13 11 8 6 5 5 5 5 5 5 7 9 10 11 11 10 10 8 7 6 6 5 5 6 8 10 11 12 12 11 10 10 10 10
30 28 27 25 24 24 24 23 22 21 19 17 14 11 8 7 6 6 6 6 7 8 10 11 12 12 11 10 9 8 8 7 6 6 6 7 9 10 11 11 10 9 9 9
35 32 30 29 28 28 27 26 25 25 24 22 20 17 15 12 10 8 7 7 7 8 9 10 12 13 13 13 12 12 10 9 9 8 7 7 7 8 9 10 10 9 9 8
39 37 35 33 32 31 30 29 29 28 27 26 25 23 21 19 16 13 11 10 9 9 9 9 11 12 13 15 15 15 14 13 11 10 9 8 8 7 7 8 9 9 9 8
43 41 39 38 36 35 34 33 32 32 31 30 29 28 27 25 23 20 18 15 13 12 11 10 10 11 13 14 15 17 17 17 15 14 12 11 10 9 8 8 8 8 9 8
Wind_Direction
26 29 33 38 42 48 53 58 68 72 73 72 73 73 73 71 74 76 89 92 97 98 93 94 91 87 80 71 62 55 41 31 356 326 309 300 290 283 278 276 276 276 276 276
27 30 34 40 44 49 57 62 66 69 71 71 72 72 71 70 71 69 73 75 75 78 73 67 64 61 54 47 34 25 17 4 349 335 317 303 297 289 286 285 282 279 278 277
27 30 35 42 46 50 57 63 63 63 66 70 72 73 71 70 69 70 69 68 65 61 55 50 45 42 38 29 19 10 1 349 334 322 313 306 300 295 291 287 285 282 281 279
28 30 35 40 47 50 53 61 62 63 66 69 70 72 72 70 71 70 69 68 65 60 54 48 42 36 28 19 8 358 347 336 326 317 310 305 300 294 291 288 286 284 281 279
27 32 36 42 49 52 56 61 63 63 67 68 68 71 68 66 66 66 63 61 59 55 51 45 37 28 20 12 3 352 342 332 325 318 312 307 303 299 295 291 288 286 283 281
27 31 38 45 52 57 60 62 64 64 65 65 65 64 61 59 57 57 56 54 52 48 43 37 31 25 18 10 2 354 346 338 329 322 317 313 309 306 302 298 294 290 287 284
31 37 45 52 56 59 62 63 64 64 63 62 61 58 56 54 52 52 52 50 48 45 41 37 34 30 25 20 14 7 1 354 347 341 336 331 325 319 314 308 303 298 293 289
33 40 49 58 62 63 64 65 66 66 63 61 59 57 56 55 53 51 50 49 48 46 43 41 39 37 36 33 29 24 19 13 8 2 356 351 345 339 332 326 318 311 304 298
35 43 53 58 64 65 67 66 65 66 64 62 60 59 59 55 51 49 48 47 46 45 45 44 43 43 42 40 37 33 29 25 20 15 9 4 358 353 347 341 336 328 319 311
34 42 49 54 60 62 66 65 63 63 62 61 61 59 57 54 51 49 47 46 45 46 45 45 47 47 45 44 42 39 34 30 26 22 18 13 9 5 360 354 350 344 336 330
33 38 43 49 54 57 61 60 56 55 55 58 59 57 55 53 50 47 46 45 46 46 46 47 49 48 47 45 42 39 35 33 29 25 23 19 16 13 12 11 9 8 5 1
31 34 37 42 45 48 50 49 47 46 47 52 56 57 54 52 49 46 45 45 46 46 46 48 48 47 45 42 39 37 34 33 31 28 27 26 25 24 24 25 27 28 29 28
27 31 34 37 40 41 44 45 43 40 42 50 55 56 53 50 47 44 44 45 45 45 46 45 44 43 41 37 36 34 32 31 30 30 30 31 32 33 35 36 37 38 39 39
20 25 29 32 35 36 38 38 38 37 37 43 53 55 52 48 45 42 42 42 43 42 41 41 39 38 36 33 30 29 30 30 31 32 33 35 37 38 40 41 42 44 45 46
4 14 20 23 28 31 33 33 32 30 29 35 51 61 58 50 45 42 41 39 39 38 36 35 33 32 31 28 27 27 28 30 31 34 36 38 40 41 43 44 45 48 49 51
327 348 2 11 18 24 28 30 29 26 24 25 36 68 78 61 52 46 42 37 35 34 32 29 26 25 25 25 25 26 28 29 32 35 37 39 41 42 44 46 48 51 53 55
300 313 332 350 3 13 20 25 27 27 26 28 36 59 124 136 78 33 25 25 26 26 24 20 18 19 21 23 24 27 29 30 32 34 37 40 42 43 45 48 51 53 55 57
284 291 300 317 338 352 6 16 23 27 29 31 35 41 65 196 240 270 304 332 352 3 7 8 9 13 17 21 25 28 31 33 34 34 35 37 39 41 44 47 50 53 55 58
275 278 282 288 300 319 335 352 8 19 24 26 26 25 19 321 254 260 274 286 302 319 334 346 354 1 8 17 24 29 32 32 32 31 31 32 34 36 39 42 46 49 52 55
269 271 272 274 276 284 297 315 337 358 11 20 22 19 10 345 273 259 268 276 280 286 298 314 329 343 355 4 14 22 27 26 27 27 27 26 28 30 34 38 40 43 46 50
265 266 266 267 267 268 272 281 294 314 336 355 8 15 13 358 322 279 266 267 270 273 280 291 302 314 327 340 348 356 9 16 17 19 20 20 19 20 24 29 33 35 39 43
263 264 264 263 262 261 262 265 271 279 292 308 329 345 355 356 345 321 286 271 270 271 273 278 283 291 300 310 316 320 330 347 360 6 10 12 13 13 15 19 24 28 31 35
262 262 262 262 260 259 258 258 259 263 268 276 287 301 315 322 319 318 309 295 282 276 271 271 274 278 284 287 291 295 301 309 325 344 356 3 5 7 8 10 14 19 25 29
260 261 261 261 259 258 256 255 254 255 257 261 266 273 281 290 300 302 299 297 298 291 278 271 270 270 270 270 273 278 284 289 294 306 326 343 353 358 1 2 3 6 13 21
259 259 259 259 258 257 256 254 253 253 253 254 257 260 264 269 278 286 289 288 290 297 296 281 270 266 263 262 262 266 272 277 280 285 294 310 326 340 349 353 354 355 359 7
257 256 256 256 256 257 255 254 252 251 251 252 253 254 257 260 264 268 275 282 282 284 290 289 278 268 263 260 258 258 261 265 270 274 278 286 297 309 324 336 343 345 346 350
255 255 254 254 254 254 253 253 252 251 250 251 251 252 254 256 258 260 263 269 274 276 279 284 282 274 266 262 259 257 256 257 260 264 268 272 279 286 294 306 318 328 332 334
Height
5815 5809 5804 5799 5794 5791 5788 5785 5783 5782 5780 5780 5779 5778 5778 5777 5777 5777 5777 5776 5776 5776 5776 5777 5777 5777 5778 5778 5779 5780 5780 5781 5782 5783 5783 5784 5784 5785 5785 5785 5785 5785 5785 5784
5818 5812 5807 5803 5799 5796 5793 5791 5788 5787 5786 5784 5783 5782 5782 5781 5780 5780 5780 5779 5779 5779 5779 5779 5779 5780 5780 5780 5780 5781 5781 5781 5782 5782 5782 5782 5782 5782 5781 5781 5780 5780 5779 5778
5820 5815 5811 5807 5804 5801 5798 5796 5794 5792 5791 5788 5787 5787 5787 5786 5785 5784 5783 5783 5782 5782 5782 5782 5781 5781 5781 5781 5781 5781 5781 5781 5781 5781 5780 5780 5779 5778 5777 5776 5775 5774 5773 5772
5823 5819 5815 5814 5808 5806 5803 5801 5799 5797 5795 5794 5793 5792 5791 5790 5789 5788 5787 5787 5786 5785 5785 5784 5784 5783 5783 5783 5782 5782 5781 5780 5780 5779 5778 5777 5776 5774 5773 5771 5769 5768 5766 5765
5825 5821 5818 5815 5812 5809 5808 5805 5804 5802 5801 5799 5798 5797 5796 5795 5794 5793 5792 5791 5790 5789 5788 5787 5786 5785 5784 5783 5782 5781 5780 5779 5778 5776 5775 5773 5772 5770 5768 5765 5763 5761 5760 5758
5827 5824 5821 5820 5816 5813 5813 5810 5808 5807 5806 5804 5803 5802 5801 5799 5798 5797 5796 5795 5793 5792 5790 5789 5788 5786 5785 5783 5782 5781 5779 5777 5776 5774 5772 5770 5767 5765 5762 5760 5757 5755 5753 5751
5829 5826 5824 5821 5819 5818 5817 5816 5813 5811 5810 5808 5807 5806 5805 5803 5802 5801 5799 5798 5796 5795 5793 5791 5789 5787 5786 5784 5782 5780 5778 5776 5774 5771 5769 5766 5764 5761 5758 5754 5751 5749 5746 5744
5833 5829 5828 5824 5822 5821 5820 5817 5816 5814 5813 5812 5810 5809 5808 5806 5805 5804 5802 5800 5799 5797 5795 5793 5791 5789 5787 5785 5782 5780 5778 5775 5773 5770 5767 5764 5761 5757 5754 5750 5747 5744 5741 5739
5838 5835 5830 5827 5825 5823 5822 5820 5819 5818 5816 5815 5814 5813 5811 5810 5808 5807 5805 5803 5801 5799 5797 5795 5793 5791 5788 5786 5784 5782 5779 5776 5774 5771 5767 5764 5760 5756 5752 5748 5744 5740 5737 5734
5842 5837 5834 5830 5828 5826 5824 5823 5822 5820 5819 5818 5817 5816 5814 5813 5811 5810 5808 5806 5804 5802 5800 5798 5795 5793 5791 5789 5786 5784 5781 5779 5775 5772 5768 5764 5760 5755 5751 5746 5742 5738 5734 5731
5846 5842 5837 5834 5831 5829 5827 5825 5824 5822 5821 5820 5819 5818 5817 5815 5814 5812 5811 5809 5807 5805 5803 5801 5799 5797 5795 5792 5790 5787 5784 5781 5778 5774 5770 5766 5761 5756 5751 5746 5741 5737 5733 5729
5850 5845 5842 5838 5835 5832 5830 5827 5826 5824 5823 5822 5821 5820 5819 5818 5816 5815 5813 5812 5810 5808 5806 5804 5802 5800 5798 5796 5793 5790 5787 5784 5781 5777 5773 5768 5764 5758 5753 5748 5743 5739 5734 5730
5852 5848 5844 5841 5838 5835 5832 5830 5828 5826 5824 5823 5822 5822 5821 5820 5818 5817 5816 5814 5812 5810 5809 5807 5805 5803 5801 5799 5796 5794 5791 5787 5784 5780 5776 5772 5767 5762 5757 5752 5748 5743 5739 5734
5853 5850 5847 5843 5840 5837 5834 5832 5829 5827 5825 5824 5823 5823 5822 5821 5820 5819 5818 5816 5815 5813 5811 5810 5808 5806 5804 5802 5799 5796 5793 5790 5787 5783 5779 5775 5771 5766 5762 5758 5753 5748 5744 5740
5854 5851 5849 5845 5842 5839 5836 5834 5831 5829 5827 5825 5824 5823 5823 5822 5822 5821 5820 5818 5817 5815 5814 5812 5810 5808 5806 5804 5802 5799 5796 5793 5790 5786 5782 5779 5775 5771 5767 5763 5759 5754 5750 5746
5853 5851 5849 5847 5844 5841 5838 5835 5832 5830 5828 5826 5824 5824 5823 5823 5822 5822 5821 5820 5819 5817 5816 5814 5812 5811 5809 5806 5804 5801 5798 5796 5792 5789 5786 5782 5779 5775 5772 5768 5765 5761 5757 5754
5851 5849 5848 5846 5844 5842 5839 5837 5834 5831 5828 5826 5824 5823 5823 5823 5823 5822 5822 5821 5820 5819 5817 5816 5814 5812 5810 5808 5806 5803 5801 5798 5795 5792 5789 5786 5783 5780 5776 5773 5770 5767 5764 5760
5847 5847 5846 5845 5843 5842 5840 5838 5835 5832 5829 5827 5825 5824 5823 5822 5822 5822 5822 5821 5821 5820 5818 5817 5815 5814 5812 5810 5808 5805 5803 5800 5798 5795 5792 5789 5786 5783 5781 5778 5775 5772 5769 5767
5843 5843 5842 5842 5841 5840 5839 5837 5835 5833 5831 5828 5826 5824 5823 5822 5821 5821 5821 5821 5820 5820 5819 5817 5816 5814 5813 5811 5809 5807 5805 5803 5800 5798 5795 5792 5789 5787 5784 5781 5779 5776 5774 5772
5838 5838 5838 5838 5838 5837 5837 5836 5834 5833 5831 5829 5826 5824 5822 5821 5820 5820 5820 5820 5819 5819 5818 5817 5816 5815 5813 5812 5810 5808 5807 5805 5802 5800 5797 5795 5792 5790 5787 5784 5782 5780 5777 5775
5833 5833 5833 5833 5833 5833 5833 5833 5832 5831 5830 5828 5826 5824 5822 5820 5819 5818 5818 5818 5818 5817 5816 5816 5815 5814 5813 5811 5810 5809 5808 5806 5804 5802 5799 5797 5794 5792 5789 5787 5784 5782 5780 5778
5826 5826 5827 5827 5827 5828 5828 5828 5828 5828 5827 5826 5825 5823 5821 5820 5818 5817 5816 5816 5815 5815 5814 5813 5813 5812 5811 5810 5810 5809 5808 5806 5805 5803 5801 5798 5796 5794 5791 5789 5786 5784 5782 5780
5817 5818 5819 5820 5821 5821 5822 5822 5822 5823 5823 5822 5822 5821 5819 5818 5817 5815 5814 5813 5812 5811 5811 5810 5810 5809 5809 5808 5808 5807 5807 5806 5804 5803 5801 5799 5797 5795 5793 5790 5788 5786 5784 5782
5807 5809 5810 5812 5813 5813 5814 5815 5816 5816 5817 5817 5817 5817 5816 5815 5814 5813 5812 5811 5809 5808 5807 5807 5806 5806 5806 5805 5805 5805 5805 5804 5803 5802 5801 5799 5798 5796 5794 5791 5789 5787 5785 5783
5796 5798 5800 5802 5803 5804 5805 5807 5807 5808 5809 5810 5811 5811 5811 5811 5810 5810 5809 5808 5806 5805 5804 5803 5802 5802 5802 5802 5802 5802 5802 5802 5801 5801 5800 5799 5797 5796 5794 5792 5790 5788 5786 5784
5783 5786 5789 5791 5793 5794 5796 5797 5798 5799 5801 5802 5803 5804 5805 5805 5805 5805 5804 5804 5803 5802 5800 5799 5798 5797 5797 5797 5797 5798 5798 5798 5798 5798 5797 5797 5796 5795 5793 5792 5790 5788 5786 5784
5769 5772 5776 5778 5781 5782 5785 5786 5788 5789 5791 5793 5794 5796 5796 5797 5798 5798 5799 5799 5798 5797 5796 5795 5794 5793 5792 5792 5792 5792 5793 5793 5793 5794 5794 5793 5793 5792 5791 5790 5789 5787 5786 5784